Location: Rancho Del Sol Observatory
(38.7214°N, 120.6350°W)
Time: 17:11:30
(UTC-08:00)

Courier 1B - Pass Details

Date: 21 January 2020
Orbit: 962 x 1209 km, 28.3° (Epoch: 27 February)

Event Time Altitude Azimuth Distance (km) Brightness Sun altitude
Exits shadow 04:13:30 29° 169° (S) 2,020 9.1 -35.5°
Maximum altitude 04:13:58 29° 163° (SSE) 2,016 9.2 -35.4°
Drops below altitude 10° 04:20:24 10° 108° (ESE) 3,130 10.9 -34.2°
Sets 04:23:42 0° 97° (E) 4,105 11.8 -33.5°
